TimePDT,TemperatureF,Dew PointF,Humidity,Sea Level PressureIn,VisibilityMPH,Wind Direction,Wind SpeedMPH,Gust SpeedMPH,PrecipitationIn,Events,Conditions,WindDirDegrees,DateUTC
12:24 AM,66.2,59.0,78,30.08,10.0,Calm,Calm,-,N/A,,Overcast,0,2013-08-18 07:24:00
12:34 AM,66.2,57.2,73,30.08,10.0,Calm,Calm,-,N/A,,Overcast,0,2013-08-18 07:34:00
12:53 AM,66.9,57.9,73,30.10,10.0,South,5.8,-,N/A,,Overcast,170,2013-08-18 07:53:00
1:51 AM,66.2,57.2,73,30.09,10.0,South,4.6,-,N/A,,Overcast,190,2013-08-18 08:51:00
1:53 AM,66.0,57.0,73,30.10,10.0,South,5.8,-,N/A,,Overcast,190,2013-08-18 08:53:00
2:20 AM,64.4,57.2,77,30.09,10.0,South,3.5,-,N/A,,Overcast,190,2013-08-18 09:20:00
2:53 AM,64.9,57.0,75,30.10,10.0,South,3.5,-,N/A,,Overcast,180,2013-08-18 09:53:00
3:00 AM,64.4,57.2,77,30.09,10.0,South,4.6,-,N/A,,Overcast,170,2013-08-18 10:00:00
3:53 AM,64.0,55.9,75,30.11,10.0,South,5.8,-,N/A,,Overcast,180,2013-08-18 10:53:00
4:53 AM,63.0,55.9,78,30.12,10.0,South,4.6,-,N/A,,Overcast,190,2013-08-18 11:53:00
5:39 AM,62.6,55.4,77,30.10,10.0,South,3.5,-,N/A,,Overcast,170,2013-08-18 12:39:00
5:53 AM,62.1,55.0,78,30.12,10.0,South,4.6,-,N/A,,Mostly Cloudy,170,2013-08-18 12:53:00
6:12 AM,62.6,55.4,77,30.11,10.0,SSE,3.5,-,N/A,,Overcast,160,2013-08-18 13:12:00
6:20 AM,62.6,55.4,77,30.11,10.0,South,3.5,-,N/A,,Overcast,170,2013-08-18 13:20:00
6:53 AM,62.1,55.0,78,30.13,10.0,SSE,5.8,-,N/A,,Overcast,160,2013-08-18 13:53:00
7:53 AM,62.1,55.9,80,30.14,10.0,South,4.6,-,N/A,,Overcast,190,2013-08-18 14:53:00
8:53 AM,63.0,55.9,78,30.15,10.0,South,6.9,-,N/A,,Overcast,190,2013-08-18 15:53:00
9:53 AM,66.0,55.9,70,30.14,10.0,Calm,Calm,-,N/A,,Mostly Cloudy,0,2013-08-18 16:53:00
10:53 AM,70.0,55.0,59,30.13,10.0,South,8.1,-,N/A,,Clear,170,2013-08-18 17:53:00
11:53 AM,72.0,55.0,55,30.13,10.0,SSW,5.8,-,N/A,,Clear,200,2013-08-18 18:53:00
12:53 PM,75.9,55.0,48,30.12,10.0,South,10.4,18.4,N/A,,Clear,170,2013-08-18 19:53:00
1:53 PM,78.1,55.9,46,30.12,10.0,SSE,10.4,-,N/A,,Clear,160,2013-08-18 20:53:00
2:53 PM,77.0,57.0,50,30.12,10.0,SW,8.1,-,N/A,,Partly Cloudy,220,2013-08-18 21:53:00
3:53 PM,78.1,55.9,46,30.11,10.0,West,8.1,19.6,N/A,,Clear,280,2013-08-18 22:53:00
4:53 PM,78.1,57.0,48,30.09,10.0,SW,10.4,-,N/A,,Scattered Clouds,220,2013-08-18 23:53:00
5:53 PM,77.0,55.0,47,30.09,10.0,Variable,6.9,-,N/A,,Mostly Cloudy,0,2013-08-19 00:53:00
6:53 PM,75.0,57.0,53,30.08,10.0,NNW,5.8,-,N/A,,Mostly Cloudy,330,2013-08-19 01:53:00
7:53 PM,72.0,57.0,59,30.09,10.0,NNW,9.2,-,N/A,,Overcast,330,2013-08-19 02:53:00
8:53 PM,70.0,54.0,57,30.09,10.0,North,5.8,-,N/A,,Overcast,350,2013-08-19 03:53:00
9:53 PM,69.1,52.0,54,30.10,10.0,NNW,6.9,-,N/A,,Overcast,330,2013-08-19 04:53:00
10:53 PM,68.0,52.0,56,30.10,10.0,NNW,5.8,-,N/A,,Overcast,340,2013-08-19 05:53:00
11:53 PM,66.9,51.1,57,30.10,10.0,NNW,4.6,-,N/A,,Overcast,340,2013-08-19 06:53:00